STARLINK-4788 (53863 NORAD) Tracking and Keplerian Element Data

This shows tracking and keplerian element data for the satellite.

Feedback or suggestion? Click here.




ElementValue
Catalog53863
NameSTARLINK-4788
Epoch Orbit130
Epoch Day324.91667824
Epoch Year2022
RAAN307.6118
Inclination53.2142
Eccentricity0.0003925
Argument of Perigee8.3565
Mean Anonmoly221.2085
Mean Motion15.7319877
Decay Rate-0.00018035
L11 53863U 22114AX 22324.91667824 -.00018035 00000+0 -12427-3 0 9998
L22 53863 53.2142 307.6118 0003925 8.3565 221.2085 15.73198770 1308



Live tracking and technical data element details for STARLINK-4788 (NORAD 53863). STARLINK-4788 can be tracked NOW for your location showing map with azimuth and elevation plus other details from your city location.







IsCatalogInMostPopularTable: catalog: 53863, numindb: 2
Update: records affected: 1



GetName: 53863 STARLINK-4788

Hit Count: updated at: Thu, 08 Dec 2022 09:46:35 GMT